Location: Austin
(30.3000°N, 97.7500°W)
Time: 06:41:01
(UTC-05:00)

Cosmos 724 - Pass Details

Date: 16 June 2025
Orbit: 847 x 947 km, 65.6° (Epoch: 07 July)

Event Time Altitude Azimuth Distance (km) Brightness Sun altitude
Exits shadow 03:56:39 63° 177° (S) 1,005 4.3 -26.1°
Maximum altitude 03:57:35 77° 114° (ESE) 934 4.3 -25.9°
Drops below altitude 10° 04:03:43 10° 29° (NNE) 2,630 7.8 -25.1°
Sets 04:06:17 0° 28° (NNE) 3,588 8.8 -24.8°
